AirNav   Free Bose Alto or Rondo audio sunglasses
 
 1016 users online  

H97 Pawnee Municipal Airport
Pawnee, Oklahoma, USA

GOING TO PAWNEE?


FAA INFORMATION EFFECTIVE 03 DECEMBER 2020

Location

FAA Identifier: H97
Lat/Long: 36-22-38.3200N 096-48-18.7500W
36-22.638667N 096-48.312500W
36.3773111,-96.8052083
(estimated)
Elevation: 875 ft. / 267 m (estimated)
Variation: 06E (1985)
From city: 2 miles N of PAWNEE, OK
Time zone: UTC -6 (UTC -5 during Daylight Saving Time)
Zip code: 74058

Airport Operations

Airport use: Open to the public
Activation date: 11/1965
Control tower: no
ARTCC: KANSAS CITY CENTER
FSS: MC ALESTER FLIGHT SERVICE STATION
NOTAMs facility: MLC (NOTAM-D service available)
Attendance: UNATNDD
FOR ARPT ATTENDANT CALL 918-762-3166.
Wind indicator: yes
Segmented circle: yes

Airport Communications

CTAF: 122.9
WX ASOS at SWO (19 nm SW): 135.725 (405-743-8150)

Nearby radio navigation aids

VOR radial/distance  VOR name  Freq  Var
SWOr048/16.2STILLWATER VOR/DME108.4007E
PERr136/28.0PIONEER VORTAC113.2006E

 
NDB name  Hdg/Dist  Freq  Var  ID
WILLIAM POGUE285/33.836206EOWP --- .-- .--.

Airport Services

Parking: tiedowns
Airframe service: NONE
Powerplant service: NONE
Bottled oxygen: NONE
Bulk oxygen: NONE

Runway Information

Runway 18/36

Dimensions: 2133 x 100 ft. / 650 x 30 m
SOUTH 300 FT MUDDY AND SOFT WHEN WET.
Surface: turf, in good condition
RUNWAY 18  RUNWAY 36
Latitude: 36-22.813333N36-22.464000N
Longitude: 096-48.291667W096-48.333333W
Elevation: 875.0 ft.867.0 ft.
Traffic pattern: leftleft
Obstructions: 40 ft. trees, 250 ft. from runway, 75 ft. right of centerline, 6:1 slope to clear30 ft. trees, 75 ft. left of centerline

Airport Ownership and Management from official FAA records

Ownership: Publicly-owned
Owner: CITY OF PAWNEE
CITY HALL, 510 ILLINOIS ST
PAWNEE, OK 74058
Phone 918-762-2110
Manager: BRAD SEWELL
CITY HALL, 510 ILLINOIS ST
PAWNEE, OK 74058
Phone 918-762-2110
MAYOR.

Airport Operational Statistics

Aircraft operations: 100/year *
100% transient general aviation
* for 12-month period ending 20 September 2017

Additional Remarks

FOR CD CTC KANSAS CITY ARTCC AT 913-254-8508.

Instrument Procedures

There are no published instrument procedures at H97.

Some nearby airports with instrument procedures:

KSWO - Stillwater Regional Airport (19 nm SW)
F22 - Perry Municipal Airport (23 nm W)
KPNC - Ponca City Regional Airport (26 nm NW)
KCUH - Cushing Municipal Airport (26 nm S)
KOWP - William R Pogue Municipal Airport (34 nm E)
 
Loc | Ops | Rwys | IFR | FBO | Links
Com | Nav | Svcs | Stats | Notes
Area around H97 (Pawnee Municipal Airport)
 
Road maps at: MapQuest Bing Google
 
Aerial photo
WARNING: Photo may not be current or correct
Aerial photo of H97 (Pawnee Municipal Airport)
Do you have a better or more recent aerial photo of Pawnee Municipal Airport that you would like to share? If so, please send us your photo.

 
Sectional chart

 
Airport distance calculator
Flying to Pawnee Municipal Airport? Find the distance to fly.

From to H97

Sunrise and sunset
Times for 04-Dec-2020
 Local
(UTC-6)
 Zulu
(UTC)
Morning civil twilight06:5612:56
Sunrise07:2513:25
Sunset17:1123:11
Evening civil twilight17:3923:39

Current date and time
Zulu (UTC)  05-Dec-2020 00:38:22
Local (UTC-6)  04-Dec-2020 18:38:22
 
METAR
KSWO 
18nm SW 
042353Z 28004KT 10SM CLR 08/M01 A3016 RMK AO2 SLP218 T00781011 10128 20078 51004
KPNC 
26nm NW 
042353Z AUTO 24003KT 10SM CLR 07/01 A3016 RMK AO2 SLP216 T00720006 10106 20056 50006
KCUH 
26nm S 
050015Z AUTO 00000KT 10SM CLR 07/M01 A3016 RMK AO2 T00721010
KOWP 
34nm E 
050015Z AUTO 00000KT 10SM CLR 09/00 A3016 RMK AO2 T00930002 PWINO
KBKN 
34nm NW 
050015Z AUTO 26007KT 10SM CLR 04/02 A3016 RMK AO2
TAF
KSWO 
18nm SW 
041720Z 0418/0518 26007KT P6SM SKC FM051200 31006KT P6SM SKC
NOTAMs
Click for the latest NOTAMs
NOTAMs are issued by the DoD/FAA and will open in a separate window not controlled by AirNav.

 

 
 

Would you like to see your business listed on this page?

 If your business provides an interesting product or service to pilots, flight crews, aircraft, or users of the Pawnee Municipal Airport, you should consider listing it here.  To start the listing process, click on the button below
 
Add a business
 

Other Pages about Pawnee Municipal Airport

Update a link
 
Copyright © AirNav, LLC. All rights reserved. Privacy Policy  Contact